Location: Canazei
(46.4667°N, 11.7667°E)
Time: 05:42:49
(UTC+00:00)

Cosmos 2242 Rocket - Pass Details

Date: 21 April 2021
Orbit: 619 x 651 km, 82.5° (Epoch: 14 May)

Event Time Altitude Azimuth Distance (km) Brightness Sun altitude
Exits shadow 01:08:47 51° 94° (E) 785 4.1 -26.0°
Maximum altitude 01:08:48 51° 94° (E) 785 4.1 -26.0°
Drops below altitude 10° 01:13:04 10° 19° (NNE) 1,995 7.1 -25.6°
Sets 01:15:21 0° 14° (NNE) 2,906 8.1 -25.4°
